Theta_e
333 335 333 334 332 333 338 336 337 336 338 338 336 339 340 335 343 345 343 348 348 348 347 347 344 345 345 342 340 342 344 343 341 344 344 349 354 353 362 358 365 364 369 367 366 366 359 354 357 364 360 370 359 355 353 353 356 360 355 363 350 349 347 347 347 347 348 355 355 349 349 351 351 354 349 350 352 351 357 361 363 352 359 360 354
335 334 333 335 333 334 338 335 339 335 336 337 337 339 340 337 339 343 344 346 347 347 347 346 348 345 341 339 338 339 343 341 339 343 341 343 361 361 360 360 363 366 370 369 369 364 359 353 354 357 358 364 365 369 363 366 366 359 355 353 355 348 346 345 343 347 344 344 345 350 346 348 352 350 346 347 348 349 351 351 354 349 350 354 356
334 334 333 335 335 338 335 335 334 337 335 337 336 338 339 340 343 345 345 346 346 346 350 347 347 351 345 341 340 337 340 344 340 343 343 343 350 355 374 368 367 362 365 370 365 361 358 358 356 355 355 354 361 356 352 355 362 355 359 353 350 351 349 349 347 354 347 347 347 342 341 341 349 348 347 346 345 346 348 346 347 348 347 351 355
333 333 332 335 337 340 335 337 335 338 337 336 336 338 338 347 347 346 347 347 352 352 356 347 350 363 367 366 367 364 361 357 351 350 350 350 355 350 360 371 363 359 359 358 360 360 363 364 360 354 359 368 364 359 356 350 360 358 354 354 354 348 347 348 351 359 358 352 344 342 344 341 335 348 344 346 345 341 340 339 346 345 349 350 348
334 335 333 336 336 338 334 341 335 337 336 336 336 336 336 339 347 351 348 346 350 359 357 362 364 370 376 369 362 370 367 361 347 347 356 357 355 355 354 360 363 363 361 359 359 362 362 364 361 359 359 364 355 351 354 349 349 352 353 353 355 353 347 349 350 350 350 356 352 349 343 341 339 338 341 342 343 340 339 339 340 342 344 350 351
334 337 334 337 337 339 337 340 336 337 337 337 337 338 337 339 344 351 352 348 343 353 359 368 369 369 366 367 363 363 358 357 351 347 343 344 343 348 353 359 361 359 360 362 362 359 365 365 366 359 357 361 353 348 348 348 350 351 351 350 350 357 353 350 346 358 349 352 353 356 349 341 339 343 341 339 344 341 339 340 339 339 340 341 340
335 336 337 337 337 338 339 338 340 339 337 340 338 338 338 338 345 346 352 353 346 356 360 365 371 363 361 349 348 348 349 348 360 349 344 347 347 351 355 358 359 357 357 361 358 366 376 371 372 366 359 357 360 356 352 349 349 349 354 352 353 356 358 351 348 348 358 351 350 347 347 351 347 345 340 339 333 344 342 338 338 339 339 339 338
335 335 336 337 339 337 337 339 338 339 338 339 338 337 339 343 343 348 355 357 350 356 359 363 367 365 365 359 345 343 335 343 347 350 345 361 365 363 357 365 360 361 363 364 364 363 365 362 367 368 363 359 359 356 354 352 350 350 362 361 361 358 359 356 353 353 353 352 350 348 348 350 348 344 339 335 334 331 339 343 340 338 338 336 336
335 335 335 336 339 339 338 338 340 340 339 338 338 338 339 340 346 350 354 360 357 362 360 361 364 365 364 357 360 355 347 343 349 353 359 365 355 360 359 352 355 359 358 363 361 363 371 366 376 375 367 364 364 358 357 353 352 352 364 360 355 358 354 354 359 363 354 349 351 352 349 350 347 345 341 338 334 330 330 331 334 338 338 337 336
336 336 336 337 338 340 340 340 340 340 341 340 339 339 339 341 347 350 356 356 354 364 362 363 364 366 364 363 359 359 354 357 359 362 354 364 364 367 368 375 351 358 361 374 369 363 363 373 367 361 362 359 362 357 357 355 353 357 353 352 352 354 366 362 365 365 358 360 356 352 350 348 343 339 338 337 337 335 329 329 331 330 329 332 335
334 336 337 337 338 340 341 340 339 339 340 340 340 339 339 339 345 350 356 354 354 360 364 366 364 362 363 365 365 361 358 355 360 356 367 372 360 351 356 371 363 356 366 359 355 363 361 363 356 355 356 360 360 357 357 353 351 350 348 350 357 363 358 363 354 357 362 362 355 353 355 346 345 340 338 337 336 334 332 332 332 333 332 331 334
334 335 336 337 339 339 340 340 339 338 338 338 339 339 341 340 344 353 357 358 355 354 360 363 363 365 364 367 365 365 366 351 353 354 353 358 355 361 370 367 366 352 354 350 353 350 361 362 362 358 358 355 354 355 355 353 356 355 349 348 358 356 363 370 362 356 355 358 356 351 352 349 348 343 338 337 337 337 336 333 333 336 335 336 339
334 335 336 336 337 338 338 339 340 340 339 337 338 338 340 341 345 353 358 360 359 353 357 362 365 365 365 365 367 368 366 364 362 357 355 352 354 350 365 362 362 357 353 346 350 352 352 364 363 362 360 357 358 369 364 361 358 348 348 350 353 372 366 360 364 359 357 357 353 350 347 345 346 344 340 338 339 339 338 337 338 338 335 335 337
334 335 335 336 338 338 340 340 339 338 337 337 337 339 339 340 345 348 357 360 363 359 357 360 365 367 368 366 364 368 369 364 366 357 351 354 357 356 349 349 356 354 350 352 351 347 363 357 363 361 362 363 366 365 363 363 358 350 351 354 355 361 369 371 361 353 356 355 353 350 349 346 344 343 341 339 338 343 343 339 336 339 339 337 338
334 334 334 335 337 340 339 341 340 338 337 338 338 341 342 342 348 352 356 359 363 363 363 363 361 364 367 364 366 363 363 365 365 364 362 356 349 347 349 345 343 345 350 353 362 371 360 355 353 356 358 360 366 366 357 359 365 368 363 361 362 359 360 360 355 351 347 348 350 354 350 351 350 345 344 341 350 346 347 344 340 333 333 335 334
333 334 334 336 338 340 341 341 340 339 341 339 338 339 338 342 350 350 357 356 359 365 364 362 363 361 367 368 365 364 367 360 365 370 370 364 357 352 351 358 356 350 350 362 354 352 351 351 353 355 358 356 359 361 363 359 362 366 370 364 362 360 360 360 358 354 350 352 358 360 358 352 349 348 347 351 353 348 350 345 342 338 334 329 333
333 333 334 337 337 338 340 341 339 339 338 339 342 339 343 345 344 353 357 357 358 364 358 360 363 361 362 360 358 359 356 355 352 356 364 363 365 364 356 355 356 363 347 349 348 354 354 356 358 351 365 362 368 366 361 363 365 369 367 369 365 362 364 361 360 358 365 361 357 358 353 351 351 356 355 354 354 352 350 351 350 343 338 332 329
334 334 336 337 338 339 338 339 338 339 339 338 344 340 344 346 347 351 354 356 361 364 358 355 356 355 356 354 358 358 354 353 355 356 351 352 358 362 359 356 351 346 343 341 351 356 363 363 362 360 359 360 364 355 352 350 360 367 360 361 365 369 363 362 365 363 362 362 358 356 354 354 352 354 352 355 355 352 352 351 346 343 344 338 334
335 333 334 336 338 338 340 339 339 340 342 340 340 341 343 346 349 349 358 357 362 364 360 356 350 348 348 348 348 352 354 353 358 372 366 351 348 346 348 353 350 348 346 350 355 358 360 360 363 360 360 359 359 357 361 366 366 367 371 366 359 355 359 361 365 364 363 360 358 357 357 354 353 355 354 354 353 351 348 356 348 345 343 341 338
336 335 334 334 336 337 338 340 339 339 339 339 339 341 340 345 357 357 352 360 364 365 365 361 352 346 343 345 348 352 362 373 367 363 354 347 345 347 347 343 342 343 346 363 357 365 369 359 352 356 359 359 360 359 359 356 359 361 363 354 356 357 358 361 361 361 360 358 355 353 354 355 354 352 350 356 356 353 351 349 348 346 345 345 347
336 334 334 334 336 337 339 340 341 341 341 341 340 340 340 345 352 358 352 357 359 363 365 365 366 363 358 349 343 357 358 377 374 370 362 352 349 348 344 345 359 359 360 360 363 370 371 369 366 366 360 366 364 363 363 371 370 366 352 354 355 352 352 353 355 354 355 355 355 355 353 354 352 346 343 347 350 349 349 350 349 348 347 346 344
337 337 337 337 338 337 337 339 341 340 339 340 340 341 339 349 350 352 355 364 359 361 366 369 370 369 360 364 365 367 378 383 374 354 353 352 350 350 353 355 351 373 364 359 376 363 370 368 363 366 366 363 370 373 365 371 370 365 356 355 352 347 346 349 352 352 353 355 357 358 357 356 351 344 343 346 347 348 348 349 350 348 345 344 344
335 336 336 337 338 339 338 341 340 339 340 340 343 344 342 351 353 357 360 368 366 366 371 374 374 373 371 368 373 376 372 373 364 361 352 352 352 352 360 360 357 350 368 366 366 365 368 369 368 368 368 366 370 365 363 366 363 361 358 355 352 348 346 348 349 352 356 358 357 356 354 355 354 348 349 348 348 347 347 347 349 349 348 345 344
333 335 334 337 337 339 342 341 340 341 346 343 344 355 347 346 353 358 361 365 370 377 372 374 372 366 367 374 376 376 372 368 368 364 367 358 355 357 374 374 372 365 360 367 366 366 369 369 362 361 362 368 366 365 363 364 362 361 358 356 355 354 354 354 353 353 353 349 345 345 348 352 352 351 349 348 350 351 349 348 347 348 347 346 346
336 337 339 341 339 338 343 339 343 347 352 347 348 369 359 358 354 361 365 368 368 377 379 377 375 373 372 372 372 373 371 368 361 369 367 367 372 371 373 369 371 367 366 365 364 365 365 366 357 358 358 363 363 363 363 359 361 362 360 357 357 355 354 353 349 349 350 347 346 348 350 350 349 346 348 349 349 350 349 347 346 347 347 347 347
350 345 343 338 339 345 352 344 341 341 356 359 363 365 371 372 371 366 369 371 375 375 381 380 380 376 374 370 374 373 368 368 369 367 366 369 373 371 369 369 368 367 367 365 364 360 358 357 358 357 356 359 361 361 358 359 359 358 358 358 357 353 351 351 351 350 350 349 350 348 349 349 344 345 345 345 345 344 346 346 346 347 348 350 350
344 353 348 347 342 351 347 350 357 342 357 364 359 359 372 373 372 374 376 377 380 380 381 380 378 373 373 367 373 374 377 374 374 370 368 369 368 367 366 365 365 365 365 364 362 357 357 355 358 356 353 353 354 353 351 351 351 351 351 350 350 347 346 343 342 341 340 341 342 342 347 349 347 346 344 344 344 345 342 339 340 343 343 342 341
346 348 345 348 346 350 344 346 354 356 354 364 362 366 373 373 374 377 379 378 377 378 379 376 374 373 375 372 373 370 370 371 371 369 367 365 366 365 364 365 364 361 360 358 356 355 354 353 352 352 352 353 350 343 342 340 341 341 342 343 342 341 341 340 340 340 339 338 338 339 339 340 340 341 343 346 350 345 344 343 342 342 337 337 336
349 344 346 349 345 352 343 343 355 366 364 367 368 373 374 376 376 377 377 377 378 376 374 374 375 371 369 369 367 367 367 367 367 366 364 364 363 363 362 361 360 358 353 352 354 351 351 351 351 351 351 348 341 338 335 334 333 334 334 335 336 336 337 338 337 337 338 338 338 338 338 339 343 344 346 346 345 344 343 343 341 340 338 336 338
344 343 346 355 356 360 356 360 364 363 367 368 370 373 373 372 372 374 375 376 376 375 374 373 369 367 367 367 367 366 365 364 363 362 362 361 361 358 358 357 355 354 353 353 353 351 351 349 348 348 347 340 336 332 335 333 332 330 329 329 330 332 334 335 335 336 336 338 337 336 338 342 342 343 344 344 343 344 345 344 343 342 341 341 339
350 345 346 358 359 360 362 364 364 367 368 370 373 373 372 372 373 373 374 375 376 372 370 367 364 365 366 365 363 361 361 359 360 359 359 357 355 354 353 353 351 351 351 351 350 348 347 346 345 343 341 333 330 329 328 327 327 328 327 327 327 329 331 331 332 333 333 334 335 336 336 338 339 340 340 341 341 341 341 342 342 341 340 340 337
354 358 360 361 361 362 364 365 367 369 370 372 373 372 371 370 372 371 372 371 370 367 365 364 363 363 362 361 359 358 358 358 357 355 353 353 352 351 350 349 347 346 348 346 346 344 344 343 341 342 338 331 327 327 325 325 325 324 327 325 326 326 327 329 330 330 331 331 332 333 335 336 336 337 338 340 339 339 339 340 341 342 342 342 343
356 360 362 363 364 366 367 368 370 372 373 372 372 370 369 369 368 369 368 366 365 363 362 361 360 360 359 359 359 357 356 354 352 351 350 350 348 347 345 344 343 343 345 343 343 341 341 341 341 340 337 330 325 326 324 324 323 323 325 327 325 325 326 326 327 327 329 330 331 332 331 333 333 336 336 336 337 337 338 339 340 342 342 342 340
357 360 363 366 366 365 368 371 372 372 371 370 371 368 368 368 366 366 364 362 361 360 359 358 358 357 358 357 355 352 349 349 349 349 348 346 345 344 343 343 344 344 342 340 339 340 340 340 339 337 337 329 326 325 324 323 322 322 323 326 324 323 324 324 325 325 325 327 328 328 329 330 332 333 334 335 336 335 337 337 337 337 339 340 340
358 361 362 364 365 368 370 369 369 366 367 367 366 365 364 363 363 361 361 360 359 357 356 356 355 354 353 351 350 349 347 347 347 346 344 343 342 342 341 341 341 339 339 339 339 339 337 336 335 333 332 329 325 324 323 322 321 321 323 324 322 322 322 323 324 325 325 326 326 327 327 328 330 330 331 333 333 332 333 333 334 335 336 338 338
359 359 361 364 367 366 364 364 365 364 362 362 360 360 360 360 360 359 358 358 356 354 353 352 350 349 349 348 347 345 345 344 344 343 341 340 340 339 338 339 341 341 340 340 338 339 335 332 332 331 328 328 325 322 322 321 320 320 322 321 320 320 320 321 321 323 324 325 326 327 328 328 328 329 330 330 330 330 330 329 330 333 335 337 336
362 364 365 367 366 363 362 362 361 360 359 358 358 358 357 356 355 354 355 354 351 349 348 347 346 346 346 346 346 344 342 342 341 340 338 338 338 337 338 340 339 340 337 334 333 332 334 331 330 329 328 326 326 322 320 319 319 319 321 319 319 319 319 319 320 322 324 325 325 326 327 327 328 328 327 326 328 331 329 328 328 329 331 334 333
362 363 363 363 361 360 359 358 356 356 356 358 358 358 356 354 351 351 350 348 347 345 345 344 343 344 344 345 344 343 341 339 339 337 336 337 338 338 338 339 337 334 331 332 333 331 331 331 329 328 327 326 326 325 319 318 317 318 320 318 318 318 318 319 320 322 323 323 324 327 328 327 327 326 324 324 326 328 327 327 326 325 326 329 333
359 359 358 357 358 358 357 357 355 353 354 356 356 354 351 350 350 348 347 345 343 343 344 343 343 343 343 343 343 342 339 338 336 336 336 336 336 336 336 337 334 333 332 331 329 328 329 329 329 328 328 327 326 326 319 317 317 317 318 318 318 317 317 318 319 319 321 322 323 324 327 327 326 324 320 322 323 326 325 326 325 324 324 327 327
355 355 355 355 358 357 354 353 352 353 354 353 352 350 349 347 346 346 344 343 343 343 343 343 342 342 342 341 340 339 338 337 336 336 337 337 337 336 336 335 334 331 329 330 330 328 328 327 329 329 327 327 326 325 323 315 315 316 317 319 318 317 317 317 318 319 319 320 321 323 325 326 321 321 319 318 318 321 323 324 325 323 324 323 324
352 352 354 354 353 353 351 351 353 353 352 351 350 348 346 346 345 343 341 341 342 343 343 342 341 339 339 339 339 338 337 337 337 336 336 336 337 335 335 333 334 334 333 332 329 329 328 328 329 328 327 327 325 325 323 316 315 314 315 316 318 318 318 317 318 319 319 320 322 323 323 324 318 319 317 315 315 318 322 323 325 323 321 321 325
352 352 351 350 350 350 351 351 351 351 349 348 347 345 344 343 342 340 341 342 343 341 340 340 339 338 337 337 337 338 336 335 337 337 336 334 334 335 332 334 332 332 331 329 329 329 328 327 328 328 327 326 326 326 321 318 315 313 312 314 317 319 320 319 318 320 323 323 323 323 322 323 317 316 316 313 313 316 319 325 320 315 318 320 324
349 349 350 349 347 346 345 346 346 346 346 346 344 342 341 341 339 339 340 341 340 339 339 338 337 335 335 336 337 336 334 334 334 335 334 332 334 334 334 334 331 331 330 328 328 328 327 326 326 326 325 325 325 324 321 318 316 313 311 312 313 317 318 323 323 323 323 324 324 323 324 324 316 310 309 311 313 315 323 320 313 316 318 321 326
348 347 346 345 343 343 343 345 343 345 345 344 343 341 340 339 338 341 340 340 340 338 337 334 334 334 335 335 335 335 334 335 334 334 334 332 331 331 332 332 332 332 331 328 328 326 325 324 322 322 323 322 322 321 320 319 317 315 312 311 312 314 316 321 325 325 325 325 324 324 323 314 310 306 308 311 314 321 321 312 312 317 323 326 326
344 342 343 343 341 341 341 342 342 343 344 345 344 341 340 338 340 342 340 339 339 337 334 333 332 333 333 333 335 335 335 334 333 332 332 331 329 331 330 329 328 327 328 330 325 323 323 321 321 320 320 321 321 320 320 320 318 317 315 313 315 316 318 317 326 326 327 326 321 315 314 315 316 312 314 316 319 325 319 318 319 323 331 330 331
343 343 343 343 342 342 342 341 341 342 342 344 342 340 338 338 340 341 341 341 338 336 334 333 333 334 333 334 333 333 333 331 331 332 331 331 330 329 328 327 326 325 325 323 322 321 319 318 319 319 318 319 320 320 319 319 318 318 318 316 317 319 324 325 327 326 325 323 321 319 320 321 324 325 328 328 328 329 328 329 329 330 328 328 327
342 342 341 340 339 338 338 338 337 339 339 339 338 338 339 340 340 338 337 340 337 334 333 332 332 332 332 333 332 329 329 330 330 328 328 326 327 325 324 324 323 322 322 320 319 320 319 317 317 318 319 320 319 319 318 316 316 315 314 315 318 322 324 324 324 326 326 324 328 328 325 323 323 326 328 329 328 328 328 327 328 329 328 327 327
341 342 342 341 339 337 336 336 336 338 339 337 336 336 337 338 336 337 336 336 335 333 331 331 332 333 334 334 331 330 328 326 325 325 322 321 319 319 318 317 317 317 319 318 318 319 319 319 316 317 319 319 317 317 316 313 312 311 310 311 314 319 321 320 320 322 322 324 327 329 329 329 328 327 327 326 326 326 327 327 328 329 330 330 329
343 343 343 341 340 339 338 337 336 337 336 336 336 337 338 336 335 336 337 334 334 334 333 332 332 334 333 334 333 333 332 328 325 324 321 322 321 318 320 318 318 317 316 317 320 317 318 320 318 318 317 315 315 314 314 310 309 306 306 307 311 313 314 316 319 315 318 326 329 329 330 328 327 326 326 325 327 328 328 329 330 331 331 330 330
341 341 340 339 339 337 336 336 336 338 338 337 337 338 339 335 335 335 336 335 335 333 332 331 330 332 332 328 327 326 325 326 324 321 320 319 318 311 317 319 316 317 310 304 309 314 313 316 320 321 319 315 314 315 309 301 299 299 300 300 302 301 302 311 313 314 331 332 326 324 324 322 324 324 321 322 323 325 324 323 323 325 325 325 329
340 339 338 338 337 336 336 336 336 337 337 337 337 337 338 335 337 337 336 336 335 333 333 331 332 332 330 326 323 323 323 323 321 319 319 317 316 322 303 304 315 317 306 294 295 300 305 310 315 317 322 315 313 307 300 299 300 300 299 299 299 299 302 303 308 322 328 325 322 320 320 321 321 321 321 321 322 322 322 321 321 322 323 324 323
Wind_Speed
15 15 15 14 15 14 12 11 11 14 12 15 14 13 14 14 9 9 10 9 10 9 8 7 7 7 6 9 9 9 6 6 7 5 4 3 4 10 8 6 6 7 5 6 6 5 5 4 4 3 2 2 4 6 5 6 5 1 3 2 7 7 7 8 7 5 5 3 2 4 7 8 9 4 6 5 2 4 2 1 1 3 1 1 4
16 14 15 16 14 15 13 11 14 14 12 15 13 12 11 16 13 9 8 9 10 9 9 8 6 7 7 8 8 9 8 6 5 5 5 6 4 5 8 6 5 5 6 5 5 5 5 4 4 3 3 3 2 2 3 3 3 4 4 4 3 6 6 9 8 4 2 2 5 5 6 5 5 5 5 7 7 6 4 3 5 6 7 1 2
15 15 16 15 16 14 14 11 14 12 14 14 14 12 11 12 10 9 6 7 9 9 8 6 5 5 6 6 6 7 10 7 7 6 6 6 8 5 3 4 6 5 5 5 5 6 5 4 4 4 5 6 4 4 6 6 4 6 4 4 6 5 5 6 7 3 3 4 4 8 8 5 4 5 5 6 7 6 3 8 9 9 8 7 5
16 16 17 16 15 13 15 10 14 12 12 14 14 13 12 6 11 9 7 6 6 8 6 8 6 4 4 2 3 5 2 4 5 5 4 3 3 9 4 3 3 4 6 7 7 5 5 5 4 4 4 2 2 4 4 6 4 4 6 6 5 6 5 6 5 2 2 4 1 4 4 5 7 2 4 4 4 8 9 7 2 2 9 10 9
16 16 17 15 17 15 15 11 15 12 12 14 13 13 11 11 11 9 7 7 5 6 7 4 5 3 1 2 2 3 2 0 4 3 2 1 2 3 9 6 6 3 3 6 5 5 6 6 6 4 3 3 4 5 4 7 8 6 6 6 5 3 5 6 6 4 4 3 3 1 3 2 4 6 6 6 7 7 7 5 4 7 8 10 10
17 16 16 15 18 16 14 15 14 14 13 12 13 13 13 11 12 9 6 7 8 7 7 3 4 4 4 1 1 2 1 2 2 3 7 7 6 4 4 10 9 6 4 3 3 4 5 6 5 4 4 5 6 7 7 8 6 6 6 7 6 5 5 6 7 2 5 1 3 4 7 6 4 6 5 4 4 8 6 9 9 7 5 4 6
17 17 16 17 18 17 16 16 15 15 15 13 14 14 13 13 11 11 7 5 8 7 8 5 3 5 5 6 5 3 3 3 2 3 4 4 6 6 4 5 7 6 6 5 5 4 1 2 3 5 5 5 5 5 7 10 9 9 4 5 5 4 4 5 5 6 2 4 7 10 9 7 6 7 5 5 6 3 3 5 6 8 9 8 7
15 18 17 17 17 18 17 17 15 15 16 14 14 14 13 11 12 10 7 6 6 8 9 7 4 5 5 6 6 6 6 4 4 4 5 3 1 3 3 2 6 4 2 5 5 5 5 5 5 5 5 6 5 6 8 8 8 7 2 4 3 6 6 4 4 4 3 4 6 6 5 5 5 8 10 8 7 6 3 2 3 7 7 7 6
16 16 17 17 17 18 17 16 15 16 15 15 14 14 14 13 12 11 9 7 6 8 10 9 6 6 6 7 5 4 4 6 6 5 3 2 3 2 3 4 8 5 7 6 6 4 4 5 3 2 3 4 4 6 7 10 9 7 2 3 8 6 7 5 3 2 3 4 4 5 7 3 4 6 8 7 6 6 7 7 5 6 7 7 6
16 17 17 17 17 17 17 17 16 15 14 14 15 13 15 13 12 13 11 8 7 7 11 10 8 6 6 5 5 4 4 4 3 2 6 4 2 2 2 3 1 4 1 2 4 5 5 3 3 5 5 7 6 7 7 8 8 4 8 8 7 6 3 3 1 1 2 2 2 4 5 5 5 6 5 6 7 5 7 8 9 10 8 8 8
15 16 17 16 17 17 17 17 17 16 14 15 14 14 14 15 14 13 11 9 9 7 11 11 9 8 6 6 5 5 5 4 3 4 1 2 4 4 3 3 2 2 2 3 4 7 7 6 7 8 8 7 7 8 7 8 6 6 9 8 6 4 3 2 5 4 3 3 2 4 3 5 5 7 6 6 6 5 6 8 9 9 12 11 9
17 15 16 16 15 17 16 17 17 16 15 15 14 13 13 14 13 13 12 10 9 9 10 11 10 8 8 7 7 6 5 5 5 4 4 3 3 3 3 3 2 4 5 5 5 8 5 8 9 8 6 7 8 8 8 7 5 3 9 10 3 4 2 1 3 4 3 2 3 4 4 4 5 6 5 6 6 6 6 6 7 8 8 10 13
16 15 15 16 15 16 17 16 15 14 12 15 15 14 12 13 15 14 13 12 9 10 10 9 9 9 8 8 7 6 6 6 5 5 5 5 4 5 4 6 6 7 8 7 8 8 6 6 7 7 7 8 7 3 3 4 3 5 7 7 4 1 2 3 3 2 3 2 3 3 4 3 5 4 5 5 5 6 5 4 4 4 3 7 9
16 16 16 15 13 14 13 13 14 13 16 15 15 13 11 11 15 16 14 13 9 9 10 9 10 9 8 8 7 7 7 7 6 8 8 5 5 6 8 7 9 10 9 7 7 6 2 2 7 9 7 6 6 5 4 4 5 9 8 6 4 3 0 1 3 5 5 6 5 6 6 3 2 3 5 6 5 3 3 4 4 4 4 7 6
16 15 16 15 14 13 12 11 12 14 16 15 13 11 10 9 14 14 14 12 11 9 8 10 9 10 8 9 8 8 9 8 7 7 6 6 9 9 8 9 9 7 8 9 4 1 3 5 6 7 9 6 4 5 7 7 7 6 6 5 4 5 5 4 4 5 7 7 7 3 3 3 5 4 5 5 1 4 4 5 5 2 5 4 8
16 15 16 16 15 12 11 11 11 12 12 12 14 12 13 10 11 16 14 15 14 10 8 11 10 10 8 7 7 7 5 7 6 7 6 7 8 8 5 5 4 4 5 3 10 9 8 8 9 10 8 9 9 8 8 7 7 6 5 5 6 6 6 6 6 7 9 5 5 4 4 4 4 5 5 2 1 1 4 5 7 7 6 5 6
15 15 14 14 18 15 12 12 13 14 13 12 10 13 10 10 11 14 15 14 14 12 12 10 10 8 9 10 10 8 9 9 7 5 7 8 6 5 4 7 4 3 5 6 9 11 8 6 4 5 2 2 2 3 4 4 4 4 3 4 5 6 5 6 6 5 2 4 3 4 6 5 6 6 4 3 3 3 5 7 7 7 6 5 5
16 15 12 13 15 15 15 13 14 13 14 14 10 12 10 9 10 12 17 14 12 11 12 12 10 11 9 11 10 9 10 10 7 7 6 4 7 7 7 8 8 8 7 10 2 6 3 3 2 3 3 3 3 4 4 7 7 4 5 6 6 3 7 7 6 2 2 2 2 3 4 5 5 6 6 4 4 5 6 7 6 7 7 9 8
14 16 14 12 11 15 12 13 14 12 12 14 14 12 10 9 9 10 16 15 13 11 10 9 11 9 10 10 11 11 10 8 5 4 5 7 9 8 6 7 8 9 10 9 5 2 4 4 4 4 4 4 6 6 4 3 2 3 3 1 7 4 4 4 5 3 3 5 7 8 8 8 7 7 6 4 5 4 6 6 6 6 8 9 9
12 15 15 15 13 16 16 13 14 14 15 14 14 12 14 12 6 7 9 10 10 10 9 8 9 10 11 11 10 7 5 4 6 6 5 8 10 10 10 10 11 9 7 4 4 1 2 3 5 5 2 2 2 3 4 6 4 5 2 4 4 5 7 8 7 7 5 5 5 7 8 8 7 4 4 6 6 7 7 7 9 8 7 7 6
12 13 13 15 14 15 16 15 13 12 10 10 11 14 14 11 10 8 10 10 10 8 8 7 5 5 5 7 8 5 4 2 4 5 4 8 8 9 7 7 3 2 7 5 2 1 3 1 1 2 1 2 2 3 3 2 3 3 5 3 2 1 3 5 4 5 4 5 7 8 9 10 4 6 6 9 8 10 9 9 9 8 8 6 6
10 11 13 13 12 15 14 14 11 10 11 11 11 11 14 7 12 10 8 7 11 9 7 6 5 4 5 4 5 6 3 2 3 5 7 8 7 5 5 5 5 2 2 2 1 1 2 2 1 1 2 3 2 3 3 2 2 4 2 1 4 7 7 8 6 8 8 6 7 9 10 10 7 10 12 12 12 11 12 11 10 10 9 10 9
16 14 14 12 12 10 12 12 11 11 10 11 8 9 12 7 10 9 8 7 8 9 7 6 5 5 5 5 4 3 1 2 2 3 6 7 4 4 3 6 7 8 4 4 5 3 5 4 3 2 2 3 3 4 6 4 3 4 2 3 4 7 9 9 7 8 8 6 6 6 9 8 3 7 10 10 11 12 11 11 8 8 9 10 11
15 12 12 10 11 10 8 12 11 9 7 10 8 5 11 11 9 9 10 9 7 6 8 7 7 8 7 5 4 2 2 2 2 2 3 4 6 3 8 6 7 6 5 3 5 4 3 3 3 3 3 3 2 4 4 5 3 1 0 3 3 3 4 5 6 7 7 6 7 9 11 10 7 7 9 9 9 9 9 8 10 9 9 10 10
15 13 11 9 9 11 10 13 8 6 5 10 10 5 6 7 9 11 9 9 7 5 6 6 6 6 5 4 3 2 2 2 2 1 1 1 5 6 6 8 6 7 7 5 2 2 1 2 4 4 6 4 3 3 4 4 3 2 3 3 3 3 4 4 8 9 9 9 9 9 9 8 7 9 10 8 7 8 8 7 8 8 8 8 8
6 7 10 13 10 7 8 10 11 9 4 7 7 5 3 4 8 10 9 7 6 4 5 5 4 4 3 3 4 3 1 1 1 1 2 7 5 4 3 3 5 4 4 3 4 5 6 7 8 7 7 8 7 5 3 4 5 6 4 4 3 4 5 5 5 7 8 8 6 8 9 7 9 11 9 9 9 10 9 7 9 9 6 5 6
9 5 9 10 12 8 9 8 5 10 3 6 8 8 5 8 8 8 7 6 6 5 5 4 4 3 2 2 3 4 4 4 5 7 6 5 5 5 6 5 5 5 4 5 4 3 2 6 7 7 8 8 7 8 9 9 9 9 9 9 5 3 3 4 6 8 9 9 9 9 8 7 10 11 12 12 12 12 8 12 13 9 8 9 8
7 7 10 9 10 8 9 7 4 7 9 4 7 7 7 8 8 7 7 6 5 5 4 4 3 4 3 4 6 6 6 6 5 5 5 5 3 5 5 6 6 6 5 7 7 7 6 6 6 5 6 4 7 10 9 9 9 9 9 8 9 9 8 7 6 7 8 9 10 10 10 10 10 8 8 7 5 6 5 5 5 6 6 11 9
6 9 8 8 10 8 12 11 9 9 12 9 7 8 8 8 7 7 6 6 6 6 5 5 6 7 7 6 6 6 5 5 4 4 4 5 5 4 4 3 4 4 5 6 5 6 6 5 5 4 4 6 10 9 8 9 8 9 9 9 10 9 9 9 8 8 8 8 9 10 10 10 10 14 18 15 13 12 5 4 6 7 10 11 9
9 9 7 7 11 11 15 14 11 12 11 10 8 8 8 8 8 7 7 7 6 6 6 7 7 7 6 6 6 5 6 6 6 4 4 4 4 4 5 6 6 5 5 5 5 6 5 5 4 5 5 9 8 7 11 16 14 9 8 8 8 8 8 8 9 8 8 8 8 10 11 17 18 17 16 15 15 14 11 8 6 5 5 5 5
13 14 14 10 12 11 12 12 12 11 12 10 9 9 9 9 8 9 8 7 7 8 7 8 7 7 6 6 6 6 6 6 6 5 4 6 7 6 6 6 5 5 4 4 4 4 4 4 4 4 5 9 8 7 14 13 13 16 10 8 8 8 8 8 9 9 9 9 9 9 9 13 14 14 12 15 15 15 15 14 11 8 5 3 5
13 13 13 13 12 13 12 12 12 12 12 11 10 10 10 10 9 9 8 8 8 8 8 8 7 7 7 7 7 6 5 5 4 6 8 7 5 6 5 5 5 5 5 4 4 4 3 5 5 7 7 8 8 10 12 14 14 14 15 9 8 8 8 7 8 8 8 9 9 9 9 8 9 10 11 8 10 12 13 15 13 10 9 9 9
15 14 14 14 13 13 13 13 12 11 11 12 12 11 10 10 10 8 8 9 9 9 8 8 7 7 8 6 6 5 6 7 7 6 5 5 6 5 5 5 5 5 4 4 4 5 7 6 7 6 7 8 8 11 12 13 12 13 14 13 7 8 8 8 9 9 9 9 8 8 9 8 8 15 11 8 6 6 9 13 15 13 10 9 8
16 15 15 13 12 11 11 12 12 13 13 12 11 11 10 9 10 9 10 9 9 9 8 8 8 7 5 5 8 9 7 6 6 6 6 5 6 5 6 5 4 4 4 5 7 7 7 6 6 6 6 8 7 9 9 12 14 16 17 14 8 9 9 9 9 9 9 10 9 9 8 9 8 9 8 8 6 5 5 6 7 7 6 7 8
12 16 15 13 13 13 14 14 12 13 13 12 11 11 11 11 10 11 10 10 9 9 9 8 7 7 8 8 7 6 6 6 6 6 5 5 5 5 5 4 5 6 6 6 6 6 5 8 8 8 6 7 6 10 13 14 14 13 15 13 9 9 8 8 9 9 10 10 10 10 10 9 9 9 8 9 7 7 6 6 6 7 7 6 7
8 14 15 15 16 16 15 13 12 13 13 14 14 13 12 11 11 11 10 10 9 10 9 9 9 8 7 7 7 6 6 6 6 6 6 5 5 6 6 5 5 5 5 4 3 5 8 8 8 8 8 7 6 11 12 12 14 14 17 10 9 9 9 9 9 10 9 9 9 9 9 9 9 8 8 10 10 8 6 6 7 7 6 3 4
5 10 13 15 16 18 17 15 14 14 14 14 14 14 14 14 13 12 10 10 10 10 10 9 9 8 8 7 7 7 7 6 5 6 6 6 6 6 5 4 4 4 5 7 8 8 6 7 8 7 7 7 6 9 12 12 12 14 12 9 9 8 8 9 9 9 8 8 8 9 9 8 8 7 8 8 10 10 4 5 6 7 7 5 3
12 11 13 14 14 16 17 17 19 18 16 14 14 12 12 12 12 11 11 11 10 11 10 9 9 8 8 7 7 6 6 6 6 6 6 6 5 3 3 3 5 7 8 7 6 7 7 7 8 8 8 7 7 8 11 10 13 14 14 10 8 8 9 9 8 9 8 8 10 17 14 8 6 5 6 8 11 10 5 5 5 7 6 6 5
16 14 14 15 14 15 17 18 19 20 17 16 15 15 14 12 11 11 11 11 11 10 9 9 9 8 8 7 6 6 6 7 6 6 5 5 4 3 3 6 6 5 6 6 6 6 6 6 6 6 12 9 6 6 10 12 13 14 12 8 8 7 8 9 9 9 9 9 9 10 15 9 5 4 4 4 8 8 5 6 5 5 5 4 6
19 17 14 14 15 15 16 16 17 17 17 16 15 14 13 12 12 11 11 11 10 10 9 8 8 8 7 7 6 6 7 7 6 5 4 3 3 4 6 4 5 4 4 4 5 5 6 6 5 5 6 7 7 7 9 13 14 15 13 9 7 8 8 10 10 10 10 9 8 8 10 7 5 5 5 7 7 8 5 5 5 5 5 5 7
19 20 19 15 14 14 15 16 14 14 14 14 13 13 12 11 12 11 12 11 10 9 8 8 7 8 7 7 7 7 6 6 5 5 4 4 4 4 4 5 4 3 4 5 6 5 5 5 5 5 6 6 8 9 10 14 15 14 14 9 6 6 6 7 8 9 8 8 8 7 6 7 5 7 5 4 3 5 6 5 5 5 4 4 7
18 17 16 17 15 15 16 15 12 12 12 12 13 13 12 12 11 11 11 10 9 9 8 8 8 7 8 7 7 6 6 5 4 4 4 4 5 4 3 4 2 3 5 6 4 5 5 5 5 6 7 7 10 14 9 12 13 14 14 13 6 6 6 6 7 7 7 7 7 6 6 7 5 4 5 5 6 6 9 2 3 2 3 4 4
18 16 14 16 16 16 15 14 13 12 11 11 14 15 12 11 12 11 9 9 9 9 9 8 8 8 7 7 6 7 6 5 4 4 4 4 5 5 4 2 3 5 6 5 5 6 6 6 6 6 6 7 8 9 14 12 12 13 15 15 12 7 11 7 6 7 8 8 7 7 6 11 7 4 3 6 7 8 8 4 5 5 6 8 8
20 21 20 18 16 15 15 13 12 12 12 11 11 12 11 12 12 9 9 8 8 8 8 9 8 8 7 7 6 6 5 5 5 4 5 6 5 4 4 5 6 4 4 4 6 7 6 6 6 7 7 7 7 7 10 13 11 14 16 16 12 13 13 9 6 6 6 7 7 8 8 10 6 3 2 5 6 5 4 7 6 5 7 6 4
22 20 18 18 18 17 16 16 14 15 13 11 9 11 13 13 10 8 8 7 7 7 8 8 8 7 7 6 5 5 5 6 5 4 5 4 4 4 5 5 6 7 7 5 7 7 6 7 6 6 7 6 6 7 7 9 13 14 15 15 14 12 13 13 7 6 7 7 9 11 13 11 6 1 3 4 4 2 4 5 5 6 6 3 3
18 18 18 19 20 19 18 17 15 15 15 11 10 11 12 10 8 7 7 6 7 7 7 7 6 6 7 6 5 6 8 7 5 5 5 4 5 5 5 5 6 6 6 7 7 5 5 6 5 5 6 6 6 6 7 7 8 10 10 13 15 13 11 12 10 6 9 11 11 10 11 11 10 8 6 6 6 7 12 13 14 12 7 7 7
13 14 16 18 20 19 19 18 16 14 14 13 12 10 10 8 7 6 7 6 7 7 7 7 7 7 7 6 6 5 7 6 5 6 6 6 6 6 7 7 6 5 5 6 6 5 5 4 5 5 5 5 5 5 6 6 6 6 7 8 10 10 12 10 7 5 5 6 7 6 5 7 7 9 8 9 9 8 8 8 7 7 7 7 7
14 11 10 9 14 18 19 18 16 14 12 13 12 12 11 9 8 8 7 7 7 7 7 7 7 5 5 5 6 10 10 6 7 6 6 7 7 7 7 7 6 6 6 6 5 5 5 5 5 6 5 5 6 5 5 6 7 7 7 7 7 7 7 7 8 7 7 5 3 3 3 1 2 3 4 3 4 4 5 4 5 5 5 4 5
13 13 11 10 12 15 16 15 12 10 11 10 10 11 10 10 8 8 7 7 7 8 7 8 5 4 4 4 4 4 6 8 8 8 8 7 6 6 7 6 6 5 4 4 4 4 5 5 5 5 5 5 5 6 7 5 5 6 6 7 7 7 7 7 8 11 6 4 4 4 4 3 1 1 1 1 1 2 3 2 2 2 2 2 3
15 15 16 14 14 15 15 13 11 9 8 8 9 9 8 9 8 7 7 6 7 8 8 6 5 5 4 6 6 7 7 7 7 7 6 6 10 10 7 5 4 4 6 5 5 4 4 5 4 3 3 3 3 5 10 13 12 11 8 7 8 10 8 8 12 16 3 4 7 7 7 7 6 5 6 6 6 5 5 6 6 7 6 5 3
16 17 16 15 14 15 14 13 10 9 10 9 7 8 8 8 6 6 6 6 6 6 6 6 5 4 6 6 6 6 6 6 7 7 6 6 5 6 9 10 7 5 2 2 3 3 5 5 4 4 1 5 4 7 10 13 15 15 15 16 17 16 17 17 18 11 8 8 7 8 8 8 9 8 8 8 7 7 7 8 8 7 6 6 6
Wind_Direction
164 176 166 172 163 180 146 163 187 155 191 148 175 164 165 152 169 161 161 161 152 159 168 184 183 171 192 199 204 191 203 216 222 248 244 203 178 148 153 154 154 171 182 190 199 232 249 268 285 280 221 237 168 199 211 234 246 266 267 268 274 274 273 269 256 291 325 352 14 324 308 282 272 258 262 264 257 281 223 286 54 48 326 258 323
165 163 175 164 166 175 143 172 186 158 180 153 179 163 175 157 162 174 160 166 156 168 162 192 188 179 185 197 199 198 179 198 214 208 225 222 122 114 150 162 167 168 174 190 210 209 227 250 258 276 287 255 246 261 259 215 226 235 257 270 265 279 276 283 291 266 206 305 344 337 280 290 292 285 284 275 255 219 205 182 163 178 209 165 35
169 164 177 164 169 159 155 174 179 165 174 159 176 163 181 154 149 166 173 180 156 169 158 188 192 192 188 187 214 202 177 182 207 199 206 231 141 156 158 125 157 174 175 185 206 222 234 231 235 233 221 228 217 231 245 253 203 234 246 251 270 265 279 286 284 279 310 66 20 329 306 318 315 270 244 293 301 290 205 202 202 201 194 131 198
171 169 181 165 167 150 169 177 174 168 181 162 177 170 178 157 146 157 175 186 168 158 165 180 194 184 226 56 357 359 16 178 200 187 191 203 172 152 154 160 173 192 187 200 209 215 213 230 243 254 272 325 301 260 252 254 230 207 238 242 232 258 270 280 279 342 326 98 336 172 279 326 311 303 318 283 291 282 269 275 240 213 151 158 186
175 177 177 173 162 161 173 185 171 172 184 165 180 174 176 172 147 160 162 181 181 149 169 177 163 139 168 65 282 349 266 313 172 175 222 196 255 170 161 176 162 210 220 198 212 204 205 209 216 235 255 291 277 269 255 247 245 251 251 238 220 235 259 279 294 297 297 133 140 29 314 286 278 307 346 308 283 284 294 272 255 220 190 189 184
178 184 176 177 162 164 175 182 177 172 185 171 181 180 173 177 157 158 163 175 186 159 160 190 126 120 118 116 309 186 274 247 190 208 188 186 204 216 208 163 160 183 211 242 237 229 206 204 194 209 239 227 247 266 267 275 278 249 240 258 242 201 239 247 266 250 283 299 189 210 159 193 248 296 302 295 303 286 312 327 329 315 285 227 211
181 180 182 179 163 171 179 183 181 177 182 178 182 179 180 174 158 164 167 176 190 157 155 168 143 141 169 200 205 220 209 230 235 240 265 190 182 179 209 137 162 194 187 188 232 234 211 244 191 198 209 229 247 265 273 266 260 265 256 256 225 254 266 252 243 283 41 313 263 245 225 181 171 266 253 279 286 280 281 301 309 315 314 312 300
185 176 186 180 169 175 181 183 184 182 178 183 184 178 181 167 163 160 165 182 198 150 155 164 167 163 178 210 199 205 217 210 219 238 247 295 201 164 136 171 135 151 190 216 220 220 215 210 209 184 208 235 249 258 269 277 279 279 28 25 282 205 241 270 263 253 276 230 247 262 270 290 247 264 284 272 269 288 289 267 293 302 303 307 311
188 179 184 180 178 176 181 183 185 184 183 181 186 180 176 176 162 161 166 179 211 151 153 166 178 180 187 200 238 239 228 210 193 196 235 254 274 268 181 178 135 217 213 203 203 214 200 212 196 175 211 225 234 253 274 281 283 293 254 231 240 225 226 237 242 232 248 292 327 332 330 322 302 285 288 297 308 333 333 322 293 257 248 239 238
191 184 182 183 183 181 181 182 186 189 186 184 182 186 176 179 163 162 163 180 196 161 156 165 184 186 187 212 207 215 257 287 302 194 189 202 219 239 327 40 207 180 121 188 217 220 218 174 194 217 227 240 232 248 256 273 283 260 253 236 267 261 204 220 211 227 256 285 301 328 325 311 281 280 293 323 328 347 320 320 318 333 333 340 318
186 189 182 187 181 186 180 184 187 190 187 189 184 190 179 179 166 165 162 176 190 177 158 169 182 192 194 204 220 210 212 245 254 284 307 175 189 229 225 152 166 240 234 244 229 215 216 202 210 220 228 232 227 234 233 245 270 297 294 276 239 262 274 230 230 212 188 184 234 280 285 292 303 305 331 343 338 316 325 321 321 334 339 323 310
183 190 182 188 182 186 184 187 187 192 190 186 190 189 189 172 167 159 160 175 184 187 169 175 185 192 200 199 205 215 213 217 225 238 251 254 243 210 209 251 223 229 218 226 236 250 208 203 216 227 230 233 228 224 223 225 207 272 285 270 229 223 194 285 277 248 227 266 250 239 232 266 269 288 317 314 311 318 311 321 335 2 345 336 329
183 184 187 187 188 185 187 188 183 191 198 187 190 189 194 174 163 157 162 173 183 187 182 182 187 192 201 201 204 203 208 219 233 231 221 227 219 237 206 192 207 231 244 231 219 221 242 200 201 219 229 239 248 272 300 289 271 244 236 270 298 254 185 192 183 301 293 259 245 270 273 271 286 286 275 284 302 286 300 348 348 17 347 323 315
186 184 190 184 188 186 188 188 183 188 199 194 190 186 194 186 161 167 164 170 181 188 183 186 190 198 195 205 205 196 206 215 215 233 231 228 216 219 242 214 200 218 225 227 238 249 289 167 205 221 230 236 225 223 238 251 248 243 252 252 259 283 176 211 201 218 211 221 225 233 234 232 254 285 288 267 256 306 21 28 10 353 358 315 301
189 184 189 181 184 188 185 187 184 186 199 197 193 183 182 197 157 162 165 169 181 189 177 184 194 201 202 205 208 207 208 207 217 217 233 235 235 235 222 237 246 233 204 208 214 212 276 267 233 226 215 214 218 220 221 229 234 229 225 240 251 255 254 252 254 253 242 227 219 157 161 204 235 247 252 256 155 133 139 134 120 353 320 295 290
186 186 186 181 177 182 184 189 188 186 195 203 196 187 188 188 160 165 163 175 180 188 181 181 194 201 203 211 211 214 212 219 201 196 209 233 252 252 259 274 269 277 280 163 189 205 212 226 234 233 218 215 214 217 220 229 230 215 197 213 232 235 238 236 233 242 248 238 135 176 171 216 225 248 244 220 96 123 134 125 137 162 180 261 283
182 186 188 180 176 179 189 187 194 190 194 203 201 192 190 174 171 162 167 175 181 183 188 186 191 205 196 203 217 219 221 228 238 217 196 208 226 237 272 284 303 309 289 254 215 202 188 198 250 279 311 299 239 193 199 258 252 200 199 220 239 249 239 244 246 247 80 87 175 197 227 220 214 216 235 245 207 166 163 161 173 174 173 194 252
178 183 181 180 170 175 187 193 193 194 193 199 205 204 185 186 181 158 169 174 179 177 189 191 193 202 206 207 209 219 224 223 212 224 239 238 205 203 217 224 229 246 244 262 316 117 164 187 195 229 261 290 301 292 251 233 239 220 231 232 237 314 339 323 341 59 124 125 185 214 224 239 229 227 237 213 194 190 193 201 200 196 182 197 225
173 182 176 182 169 169 181 191 193 192 191 197 203 212 186 195 182 173 165 179 170 173 192 199 197 205 206 212 218 211 212 219 228 206 197 227 260 261 243 218 224 210 219 226 226 237 158 185 186 192 205 221 245 255 278 277 249 244 195 183 65 88 200 199 207 199 174 202 205 202 203 220 219 208 217 231 240 227 232 223 220 209 214 219 230
186 183 179 178 172 171 178 188 195 195 193 198 197 205 209 184 184 172 178 161 161 167 186 206 210 212 214 210 214 219 215 197 200 208 220 246 243 233 225 239 247 255 265 187 140 133 274 248 224 214 201 247 278 313 287 280 266 255 115 119 170 179 204 201 184 183 204 208 231 236 229 225 217 93 8 258 239 235 228 226 225 227 225 223 204
188 186 167 170 171 176 177 185 193 197 192 196 196 192 218 184 177 173 187 160 167 175 185 197 220 235 255 272 246 198 185 238 164 142 203 235 258 271 284 291 332 2 49 16 14 119 239 244 16 352 266 216 215 249 274 300 311 83 112 138 121 109 6 334 323 301 261 256 249 248 249 250 80 74 272 265 259 261 251 240 240 231 228 221 204
191 178 168 175 178 182 179 177 190 196 191 194 201 182 208 196 169 177 184 158 169 183 184 190 201 226 233 245 283 315 318 120 163 190 215 242 259 286 335 338 307 102 107 79 64 15 329 71 316 237 292 297 261 252 295 317 337 85 73 95 86 33 327 290 288 275 259 243 241 235 239 245 155 182 219 243 248 239 242 242 224 221 220 237 230
176 185 173 178 172 178 169 170 189 201 196 183 213 181 194 197 161 167 165 165 168 176 177 177 189 201 216 233 240 232 322 324 254 217 238 246 230 268 318 340 324 276 70 52 41 16 42 30 12 339 289 297 332 7 330 352 14 81 126 190 174 186 218 241 248 256 258 246 248 258 267 269 216 191 213 224 233 239 236 240 229 214 217 224 244
169 187 179 167 169 171 156 163 185 193 192 166 198 207 184 194 172 160 166 171 167 163 171 174 188 205 213 215 208 186 205 246 263 260 256 270 316 2 40 29 13 27 20 48 40 32 42 40 344 317 307 290 348 42 12 16 27 89 312 260 232 228 253 277 308 313 326 340 312 299 272 254 251 235 231 243 243 240 238 239 247 247 241 232 230
177 187 161 144 163 177 162 161 176 208 184 168 181 185 184 169 164 157 162 163 175 159 156 177 188 209 206 193 181 181 197 250 277 307 249 172 69 45 49 44 25 31 24 360 10 32 339 270 296 336 356 360 15 2 7 337 295 262 268 290 290 270 277 286 272 277 275 286 271 256 265 272 275 282 277 268 260 255 254 258 262 251 242 239 241
202 161 144 154 160 188 154 156 165 203 175 155 152 149 165 126 132 143 144 151 157 162 156 169 183 192 206 193 151 160 187 62 54 61 6 51 66 73 51 69 60 42 19 13 15 13 349 354 9 354 356 0 358 13 3 327 322 314 303 287 304 319 320 317 302 285 286 285 280 277 279 300 303 284 278 279 280 283 276 269 263 264 268 292 286
195 154 134 138 161 169 147 133 153 170 201 147 150 152 131 114 123 125 132 141 139 154 148 161 161 164 136 197 117 80 73 86 52 46 51 65 41 54 50 35 32 20 5 16 10 20 27 5 19 17 7 7 356 12 15 8 2 4 2 357 360 8 359 350 338 338 327 321 310 305 288 258 238 235 247 252 251 249 242 250 255 269 294 291 289
188 137 140 140 159 155 136 158 191 159 171 168 141 129 117 119 119 121 121 126 134 132 134 134 129 112 105 78 81 81 60 42 62 58 50 51 43 50 39 35 41 13 30 37 22 12 26 31 19 9 4 342 34 42 26 18 14 10 2 355 351 346 341 332 332 324 319 310 307 301 298 295 292 286 276 283 292 269 252 259 296 283 288 279 274
184 157 143 149 174 168 158 175 182 148 142 134 129 116 115 111 114 120 123 125 119 122 127 125 109 94 86 83 74 79 86 89 73 60 63 61 52 57 69 46 33 25 28 33 30 26 25 16 20 358 354 32 60 43 35 24 15 10 3 357 350 341 332 324 317 308 301 296 294 297 296 292 296 304 310 313 313 312 282 248 241 224 227 238 243
188 159 149 173 156 145 150 155 146 141 132 135 131 127 125 124 125 121 117 115 121 124 119 108 104 98 96 89 86 86 79 65 65 81 73 65 51 37 44 52 38 42 30 16 10 22 16 20 354 19 9 68 58 53 40 41 34 20 7 353 339 332 325 320 316 310 304 304 304 300 299 304 307 308 308 308 316 323 330 316 294 294 290 271 260
168 157 167 169 143 145 141 139 142 139 138 136 133 129 127 123 120 119 119 120 117 108 102 108 105 102 89 88 87 77 72 69 61 57 80 67 39 37 38 37 43 36 27 22 38 19 23 12 6 13 36 74 59 43 46 40 30 25 9 350 335 322 319 319 312 304 301 297 297 301 300 301 305 307 310 315 311 309 319 323 330 325 309 285 279
148 148 146 147 149 146 146 146 141 138 140 138 137 133 127 125 125 124 122 116 109 111 111 104 106 105 103 92 83 86 86 89 82 48 35 42 59 50 47 42 36 27 32 21 35 21 9 12 15 9 57 80 67 46 45 38 25 18 4 348 330 327 321 313 309 307 306 309 308 301 297 302 305 307 310 313 320 339 332 315 310 301 297 289 270
155 151 150 153 150 150 147 144 141 140 139 139 135 130 126 125 123 117 115 110 110 106 101 102 104 106 101 107 122 99 74 64 56 58 61 61 55 52 47 40 26 23 27 20 13 17 30 25 23 11 58 77 66 44 45 36 24 11 359 352 342 333 328 328 328 324 318 316 314 313 311 307 307 313 315 319 331 330 318 311 303 301 295 288 269
160 155 153 148 145 143 143 138 135 137 137 130 129 121 117 113 112 107 104 105 108 109 108 106 97 84 87 85 64 69 72 68 72 70 69 58 55 51 49 29 15 14 34 16 25 25 25 34 28 19 51 76 59 43 50 36 22 11 0 350 344 340 332 325 324 323 321 318 319 317 313 309 316 324 327 328 328 316 319 314 318 313 312 312 323
169 154 150 145 141 135 132 132 130 132 127 117 111 114 111 107 105 106 106 109 107 103 99 93 88 86 78 70 83 87 81 74 68 71 66 57 53 47 47 24 24 25 23 30 26 27 29 34 26 24 20 77 52 48 41 34 20 5 354 352 345 340 329 325 322 320 318 317 316 312 312 320 329 325 342 353 353 347 342 334 325 325 313 323 325
180 151 140 140 136 133 130 118 116 119 116 122 125 123 118 111 113 111 114 111 108 107 100 95 90 89 87 87 86 84 76 75 74 65 58 50 50 45 29 20 30 34 36 12 17 46 49 45 30 23 18 16 73 50 44 33 23 7 358 351 345 336 332 326 325 323 319 319 315 317 320 319 324 321 12 4 354 337 340 336 333 329 324 334 298
111 117 130 129 129 130 125 125 128 125 124 127 124 125 121 120 120 117 111 106 102 100 100 97 93 89 87 83 83 83 82 76 68 65 55 51 43 35 42 357 23 50 39 29 42 35 35 45 32 23 16 6 26 52 46 37 22 9 2 352 345 340 334 333 328 322 316 315 315 312 314 319 324 354 21 12 347 345 327 350 337 328 328 339 319
114 109 112 119 123 130 135 132 129 129 128 125 125 125 121 119 116 115 114 111 108 106 102 99 97 93 88 86 82 81 84 75 66 59 57 59 57 49 34 23 8 46 46 24 22 36 28 34 25 21 8 18 4 61 52 41 22 20 8 358 347 341 336 332 325 318 316 312 312 315 318 330 349 26 15 16 357 352 340 347 357 335 334 331 20
124 127 130 132 134 130 127 126 127 128 131 130 127 123 119 117 117 116 111 107 103 100 99 99 98 95 92 89 87 88 79 69 61 61 63 62 45 53 46 45 35 45 46 45 18 32 32 30 31 17 11 11 8 28 58 34 22 18 13 351 345 335 332 331 324 318 315 313 309 313 315 329 11 23 17 14 8 1 349 340 338 333 310 335 17
133 135 140 131 120 122 125 125 125 124 127 125 124 119 116 115 111 105 100 97 97 98 99 98 96 94 93 89 85 80 77 83 86 81 70 68 71 44 55 54 49 41 50 49 37 42 41 34 21 21 19 15 18 11 41 31 19 10 0 352 346 340 334 328 322 322 322 315 308 312 315 342 23 4 7 26 15 2 351 327 315 305 342 13 347
133 125 122 131 132 128 127 123 120 123 123 119 116 114 109 102 101 99 100 102 104 107 106 102 100 97 92 87 78 77 86 85 85 82 60 62 72 72 49 45 51 49 67 64 55 56 44 41 28 29 23 28 20 20 31 31 14 358 346 346 330 327 322 317 312 317 310 306 319 338 326 24 30 1 10 3 357 321 317 319 15 28 32 324 326
119 130 139 133 129 127 123 116 114 111 110 112 109 100 96 96 97 100 105 108 110 109 105 103 99 95 95 96 99 101 90 86 90 98 102 88 68 72 69 77 60 43 60 62 57 54 56 44 41 34 28 33 25 41 28 18 7 349 336 332 330 323 321 307 311 305 324 336 333 336 329 349 27 346 325 304 298 302 303 323 40 318 296 298 312
135 130 119 123 126 124 114 109 106 102 99 99 97 96 97 98 98 101 107 111 112 110 107 103 101 101 106 105 99 98 103 103 93 89 95 70 51 43 45 52 70 75 58 58 47 56 49 35 38 32 33 32 23 25 30 15 360 339 334 333 335 326 337 330 316 332 340 342 347 348 330 342 358 1 327 321 314 307 314 28 345 338 318 302 290
130 127 128 125 113 104 96 90 88 84 80 78 86 93 96 97 97 100 100 102 103 104 105 106 107 110 108 110 119 118 114 110 87 74 63 62 76 65 31 16 27 66 111 75 65 58 43 35 27 28 31 27 26 20 20 15 354 343 340 337 337 345 344 339 328 345 340 347 352 350 336 328 343 351 285 261 276 297 333 320 325 314 299 293 279
130 131 122 113 108 103 99 94 88 84 80 76 76 90 93 92 93 99 108 113 112 109 105 108 114 115 111 105 99 102 90 72 86 89 87 84 74 80 70 46 30 17 14 42 75 58 46 39 25 26 22 24 21 12 8 4 359 351 339 336 336 341 337 337 338 343 348 349 347 351 3 9 26 39 332 280 273 325 325 331 330 330 360 8 53
118 114 116 117 112 105 98 94 92 93 90 86 80 81 87 93 104 112 121 117 113 108 111 118 115 108 107 100 102 92 85 90 89 70 75 64 73 70 71 72 59 38 28 30 42 46 48 46 40 26 22 20 16 9 0 351 347 338 332 332 329 328 329 331 326 318 331 337 345 356 13 18 29 29 34 48 55 58 59 55 56 52 45 43 46
103 111 121 122 118 112 111 109 104 98 100 101 100 97 98 106 118 127 126 118 111 114 121 123 123 128 129 135 115 102 95 87 81 77 64 66 60 48 43 41 45 44 50 41 41 32 33 47 40 28 20 17 15 10 355 342 342 333 332 326 328 329 328 326 330 318 322 329 330 345 13 26 45 32 42 60 66 60 60 56 55 52 56 60 60
113 106 91 89 105 114 117 117 117 119 117 119 123 126 133 137 135 129 125 127 126 134 138 135 137 142 141 139 138 134 127 112 81 71 80 83 72 64 60 52 38 25 25 36 41 25 18 17 30 18 12 9 6 5 1 347 331 333 323 318 318 320 326 327 314 322 317 288 262 280 325 333 19 48 48 45 49 61 60 56 59 55 63 68 77
103 94 92 95 99 99 100 102 103 105 112 120 126 130 131 125 129 132 143 149 135 139 130 131 129 116 106 130 140 107 100 99 91 78 53 38 54 71 80 71 49 42 28 19 9 28 12 359 37 21 12 13 0 351 342 323 291 275 288 318 334 333 330 318 304 303 305 280 222 226 220 244 273 3 1 349 347 37 52 56 75 107 137 116 102
99 96 96 93 90 95 96 97 99 105 104 106 107 106 114 127 128 142 147 138 140 138 134 132 133 134 132 87 61 68 75 89 101 96 86 73 52 53 46 74 82 55 53 31 25 52 353 339 355 55 40 22 354 321 306 315 332 350 347 323 306 299 301 322 341 341 324 28 40 35 33 38 44 46 42 46 47 53 62 64 53 47 40 38 48
117 112 109 108 106 103 102 102 102 102 102 104 104 109 108 112 125 131 134 132 139 140 137 131 137 142 118 116 114 104 105 106 104 108 105 102 105 61 36 37 55 93 64 21 6 326 321 341 349 353 309 205 279 311 333 348 356 356 357 355 352 350 352 354 356 2 21 29 38 47 44 40 34 30 31 35 44 45 44 44 41 34 35 36 32